Location: Eppenbrunn
(49.1158°N, 7.5601°E)
Time: 01:46:05
(UTC+00:00)

STARLINK-1246 - Pass Details

Date: 09 April 2020
Orbit: 549 x 550 km, 53.0° (Epoch: 03 June)

Event Time Altitude Azimuth Distance (km) Brightness Sun altitude
Rises 20:34:28 0° 294° (WNW) 2,731 8.5 -21.1°
Reaches altitude 10° 20:36:46 10° 288° (WNW) 1,834 7.2 -21.4°
Maximum altitude 20:40:45 46° 215° (SW) 751 4.1 -21.8°
Enters shadow 20:40:51 46° 210° (SSW) 752 4.1 -21.9°
